Home   Weather   Brasilia   Past weeks

Flag for Brazil Past Weather in Brasilia, Distrito Federal, Brazil — Yesterday and Last 2 Weeks

Now
75 °F

Passing clouds.


Feels Like: 75 °F
Forecast: 64 / 81 °F
Wind: 7 mph from Southwest

Location: Brasilia Aeroporto

Current Time: Apr 23, 2017 at 10:52:06 pm

Latest Report: Apr 23, 2017 at 10:00 pm


Visibility: N/A

Pressure: 30.12 "Hg (26.57 "Hg at 1091m altitude)

Humidity: 83%

Dew Point: 70 °F

Location of BrasiliaLocation

Past Weather in Brasilia — Graph

°F

Brasilia Temperature Yesterday

Maximum temperature yesterday: 86 °F (at 1:00 pm)
Minimum temperature yesterday: 68 °F (at 12:00 am)
Average temperature yesterday: 75 °F

High & Low Weather Summary for the Past Weeks

 TemperatureHumidityPressure
High88 °F (Apr 11, 4:00 pm)100% (Apr 11, 6:00 am)30.18 "Hg (Apr 11, 6:00 am)
Low59 °F (Apr 9, 6:00 am)33% (Apr 18, 1:00 pm)29.98 "Hg (Apr 20, 3:00 pm)
Average73 °F70%30.08 "Hg
* Reported Apr 8 9:00 pm — Apr 23 9:00 pm, Brasilia, Weather by CustomWeather, © 2017

Note: Actual official high and low records may vary slightly from our data, if they occured in-between our weather recording intervals... More about our weather records

Advertising

Brasilia Weather History for the Previous 24 Hours

Scroll right to see more
 ConditionsComfort  
Time TempWeatherWind HumidityBarometerVisibility
9:00 pm
Sun, Apr 23
73 °FPassing clouds.5 mph89%30.12 "HgN/A
8:00 pm75 °FPassing clouds.6 mph83%30.09 "HgN/A
7:00 pm75 °FScattered showers. Passing clouds.7 mph69%30.09 "HgN/A
6:00 pm75 °FScattered showers. Passing clouds.7 mph65%30.07 "HgN/A
5:00 pm79 °FScattered showers. Scattered clouds.5 mph58%30.07 "HgN/A
4:00 pm79 °FScattered showers. Scattered clouds.6 mph54%30.04 "HgN/A
3:00 pm79 °FScattered showers. Partly sunny.5 mph54%30.07 "HgN/A
2:00 pm77 °FScattered showers. Scattered clouds.6 mph61%N/AN/A
1:00 pm77 °FScattered showers. Scattered clouds.7 mph61%N/AN/A
12:00 pm79 °FScattered showers. Passing clouds.6 mph54%30.12 "HgN/A
11:00 am79 °FPassing clouds.3 mph54%30.15 "HgN/A
10:00 am75 °FPassing clouds.5 mph65%30.18 "HgN/A
9:00 am73 °FPassing clouds.5 mph69%30.15 "HgN/A
8:00 am68 °FSunny.6 mph78%30.15 "Hg10 mi
7:00 am63 °FSunny.7 mph94%30.12 "Hg10 mi
6:00 am63 °FClear.2 mph88%30.12 "Hg10 mi
5:00 am63 °FPassing clouds.No wind94%30.09 "HgN/A
4:00 am64 °FPassing clouds.3 mph88%30.12 "HgN/A
3:00 am66 °FPassing clouds.5 mph88%30.12 "HgN/A
2:00 am66 °FPassing clouds.6 mph94%30.12 "HgN/A
1:10 am68 °FPassing clouds.5 mph88%30.12 "HgN/A
1:00 am68 °FPassing clouds.5 mph88%30.12 "HgN/A
12:00 am66 °FClear.2 mph94%30.12 "Hg10 mi
11:00 pm
Sat, Apr 22
68 °FClear.No wind83%30.12 "Hg10 mi
10:00 pm68 °FClear.1 mph88%30.12 "Hg10 mi
Weather by CustomWeather, © 2017

See weather overviewHow to use our weather pages